This is the latest recevied weather packets stored in our database for station/object KI7MOQ. If no packets are shown the sender has not sent any weather packets the latest 10 day(s).
| Time | Temp. | Humidity | Pressure | Rain* | Wind** | Luminosity | Snow |
|---|---|---|---|---|---|---|---|
| 1778283720 | 20° C | 46% | 1023.9 hPa | 0 mm | - | 40 W/m² | - |
| 1778283420 | 19.44° C | 47% | 1023.6 hPa | 0 mm | - | 358 W/m² | - |
| 1778283117 | 20° C | 48% | 1023.8 hPa | 0 mm | - | 397 W/m² | - |
| 1778282814 | 20° C | 47% | 1023.8 hPa | 0 mm | - | 334 W/m² | - |
| 1778282511 | 18.89° C | 48% | 1023.7 hPa | 0 mm | - | 332 W/m² | - |
| 1778282209 | 18.89° C | 49% | 1023.7 hPa | 0 mm | - | 452 W/m² | - |
| 1778281905 | 18.89° C | 49% | 1023.6 hPa | 0 mm | - | 258 W/m² | - |
| 1778281602 | 18.33° C | 50% | 1023.5 hPa | 0 mm | - | 106 W/m² | - |
| 1778281298 | 18.89° C | 49% | 1023.7 hPa | 0 mm | - | 136 W/m² | - |
| 1778280997 | 18.89° C | 49% | 1023.8 hPa | 0 mm | - | 144 W/m² | - |
| 1778280692 | 18.33° C | 51% | 1023.6 hPa | 0 mm | - | 41 W/m² | - |
| 1778280390 | 17.78° C | 51% | 1023.8 hPa | 0 mm | - | 97 W/m² | - |
| 1778280088 | 18.33° C | 50% | 1023.8 hPa | 0 mm | - | 53 W/m² | - |
| 1778279785 | 18.33° C | 50% | 1024 hPa | 0 mm | - | 55 W/m² | - |
| 1778279482 | 18.33° C | 51% | 1023.9 hPa | 0 mm | - | 39 W/m² | - |
| 1778279180 | 18.33° C | 50% | 1023.9 hPa | 0 mm | - | 50 W/m² | - |
| 1778278877 | 18.33° C | 50% | 1023.8 hPa | 0 mm | - | 58 W/m² | - |
| 1778278573 | 18.33° C | 51% | 1024 hPa | 0 mm | - | 43 W/m² | - |
| 1778278269 | 17.78° C | 51% | 1024 hPa | 0 mm | - | 39 W/m² | - |
| 1778277965 | 18.33° C | 49% | 1024.2 hPa | 0 mm | - | 39 W/m² | - |
| 1778277661 | 18.33° C | 49% | 1023.9 hPa | 0 mm | - | 48 W/m² | - |
| 1778277359 | 17.78° C | 51% | 1024.1 hPa | 0 mm | - | 97 W/m² | - |
| 1778277055 | 17.78° C | 51% | 1024.1 hPa | 0 mm | - | 199 W/m² | - |
| 1778276753 | 17.22° C | 52% | 1024 hPa | 0 mm | - | 44 W/m² | - |
| 1778276449 | 17.78° C | 51% | 1024.2 hPa | 0 mm | - | 36 W/m² | - |
* Rain latest hour (hover to see other rain measurements)
** Current wind speed in m/s (hover to see current wind gust speed)